This demonstration page uses our WeatherBlox Daily Observations layout. Learn more.

Left ArrowRight Arrow

39.08367, -84.50855

Hourly Observations for August 19, 2020

Temp ( °F °C ) Dew Point ( °F °C ) Humidity (%) Winds ( mph kmh ) Pressure ( in mb ) Visibility ( mi km ) Precip ( " mm )
12:02 am 00:02 Mostly Clear with Mist and Fog 64 17.8 63 17.2 96 96 N N/A 29.99 1016 3 4 N/A
12:09 am 00:09 Partly Cloudy 63 17.2 62 16.7 97 97 N N/A 29.99 1016 7 11 N/A
12:17 am 00:17 Mostly Cloudy with Mist and Fog 62 16.7 61 16.1 96 96 N N/A 29.99 1016 2 3 N/A
12:27 am 00:27 Mostly Cloudy with Fog 63 17.2 62 16.7 97 97 N N/A 29.99 1016 1 1 N/A
12:37 am 00:37 Cloudy with Mist and Fog 63 17.2 63 17.2 100 100 N N/A 30.00 1016 2 3 N/A
12:44 am 00:44 Cloudy 64 17.8 63 17.2 96 96 N N/A 30.00 1016 10 16 N/A
12:53 am 00:53 Cloudy 64 17.8 63 17.2 96 96 NNE 5 7 30.00 1016 10 16 N/A
1:53 am 01:53 Cloudy 65 18.3 59 15 81 81 NE 7 11 30.00 1016 10 16 N/A
2:53 am 02:53 Mostly Cloudy 63 17.2 59 15 87 87 N N/A 30.00 1016 10 16 N/A
3:53 am 03:53 Cloudy 62 16.7 59 15 90 90 N N/A 30.00 1016 10 16 N/A
4:53 am 04:53 Clear 59 15 58 14.4 96 96 N N/A 29.99 1016 10 16 N/A
5:53 am 05:53 Clear with Mist and Fog 59 15 57 13.9 93 93 N N/A 30.00 1016 6 10 N/A
6:53 am 06:53 Mostly Cloudy 58 14.4 56 13.3 93 93 N N/A 30.02 1017 10 16 N/A
7:53 am 07:53 Partly Cloudy 60 15.6 58 14.4 93 93 N N/A 30.05 1018 10 16 N/A
8:53 am 08:53 Mostly Sunny 64 17.8 56 13.3 75 75 NE 5 7 30.06 1018 10 16 N/A
9:53 am 09:53 Mostly Sunny 68 20 57 13.9 68 68 ENE 7 11 30.06 1018 10 16 N/A
10:53 am 10:53 Sunny 72 22.2 58 14.4 61 61 NE 9 15 30.06 1018 10 16 N/A
11:53 am 11:53 Mostly Sunny 75 23.9 57 13.9 54 54 NE 13 20 30.06 1018 10 16 N/A
12:53 pm 12:53 Partly Cloudy 76 24.4 55 12.8 48 48 E 9 15 30.05 1018 10 16 N/A
1:53 pm 13:53 Partly Cloudy 77 25 54 12.2 45 45 E 9 15 30.04 1017 10 16 N/A
2:53 pm 14:53 Sunny 79 26.1 56 13.3 45 45 ENE 10 17 30.03 1017 10 16 N/A
3:53 pm 15:53 Sunny 79 26.1 54 12.2 42 42 ENE 12 19 30.01 1016 10 16 N/A
4:53 pm 16:53 Mostly Sunny 78 25.6 54 12.2 43 43 ENE 8 13 30.01 1016 10 16 N/A
5:53 pm 17:53 Partly Cloudy 78 25.6 56 13.3 47 47 NE 10 17 30.01 1016 10 16 N/A
6:53 pm 18:53 Partly Cloudy 77 25 55 12.8 47 47 E 9 15 30.00 1016 10 16 N/A
7:53 pm 19:53 Sunny 72 22.2 56 13.3 57 57 ENE 5 7 30.01 1016 10 16 N/A
8:53 pm 20:53 Clear 66 18.9 59 15 78 78 N N/A 30.02 1017 10 16 N/A
9:53 pm 21:53 Clear 63 17.2 59 15 87 87 N N/A 30.04 1017 10 16 N/A
10:53 pm 22:53 Clear 61 16.1 58 14.4 90 90 N N/A 30.04 1017 10 16 N/A
11:53 pm 23:53 Clear 60 15.6 58 14.4 93 93 N N/A 30.05 1018 10 16 N/A

Powered by AerisWeather